• En España
  • Lista de países
  • Para 7 días
  • Temperatura del agua
  • Mapa Satelital
  • El tiempo en el mapa
  • Informadores
  • user-avatar
    Iniciar sesión

    Tiempo cada hora Santiago del Estero

    Hoy, 15 Noviembre, Jueves

    Tiempo Temperatura Precipitaciones Viento Presión Humedad
    00:00 +22°C° 0 mm 3 mps 741 mmHg 47%
    01:00 +21°C° 0 mm 3 mps 741 mmHg 48%
    02:00 +21°C° 0 mm 3 mps 740 mmHg 49%
    03:00 +21°C° 0 mm 3 mps 740 mmHg 51%
    04:00 +20°C° 0 mm 3 mps 740 mmHg 52%
    05:00 +20°C° 0 mm 3 mps 740 mmHg 53%
    06:00 +22°C° 0 mm 4 mps 740 mmHg 49%
    07:00 +25°C° 0 mm 5 mps 740 mmHg 46%
    08:00 +27°C° 0 mm 6 mps 740 mmHg 42%
    09:00 +29°C° 0 mm 6 mps 739 mmHg 39%
    10:00 +32°C° 0 mm 6 mps 739 mmHg 37%
    11:00 +34°C° 0 mm 6 mps 739 mmHg 34%
    12:00 +35°C° 0 mm 6 mps 738 mmHg 32%
    13:00 +36°C° 0 mm 6 mps 738 mmHg 31%
    14:00 +38°C° 0 mm 6 mps 737 mmHg 30%
    15:00 +38°C° 0 mm 6 mps 737 mmHg 31%
    16:00 +38°C° 0 mm 6 mps 736 mmHg 31%
    17:00 +37°C° 0 mm 5 mps 736 mmHg 32%
    18:00 +35°C° 0 mm 5 mps 736 mmHg 37%
    19:00 +33°C° 0 mm 4 mps 737 mmHg 41%
    20:00 +30°C° 0 mm 3 mps 737 mmHg 46%
    21:00 +29°C° 0 mm 4 mps 738 mmHg 45%
    22:00 +28°C° 0 mm 4 mps 739 mmHg 44%
    23:00 +28°C° 0 mm 5 mps 739 mmHg 44%

    Mañana, 16 Noviembre, Viernes

    Tiempo Temperatura Precipitaciones Viento Presión Humedad
    00:00 +27°C° 0 mm 5 mps 739 mmHg 44%
    01:00 +27°C° 0 mm 5 mps 739 mmHg 44%
    02:00 +26°C° 0 mm 5 mps 739 mmHg 43%
    03:00 +26°C° 0 mm 4 mps 739 mmHg 45%
    04:00 +25°C° 0 mm 4 mps 740 mmHg 47%
    05:00 +23°C° 0 mm 4 mps 740 mmHg 48%
    06:00 +26°C° 0 mm 4 mps 740 mmHg 46%
    07:00 +27°C° 0 mm 4 mps 741 mmHg 45%
    08:00 +28°C° 0 mm 5 mps 741 mmHg 43%
    09:00 +32°C° 0 mm 5 mps 741 mmHg 40%
    10:00 +34°C° 0 mm 5 mps 741 mmHg 36%
    11:00 +36°C° 0 mm 5 mps 741 mmHg 33%
    12:00 +37°C° 0 mm 5 mps 740 mmHg 32%
    13:00 +39°C° 0 mm 6 mps 739 mmHg 30%
    14:00 +40°C° 0 mm 6 mps 738 mmHg 29%
    15:00 +39°C° 0 mm 6 mps 737 mmHg 30%
    16:00 +39°C° 0 mm 6 mps 737 mmHg 30%
    17:00 +39°C° 0 mm 5 mps 736 mmHg 31%
    18:00 +36°C° 0 mm 5 mps 736 mmHg 33%
    19:00 +35°C° 0 mm 5 mps 736 mmHg 36%
    20:00 +33°C° 0 mm 5 mps 737 mmHg 38%
    21:00 +32°C° 0 mm 5 mps 737 mmHg 38%
    22:00 +30°C° 0 mm 5 mps 737 mmHg 38%
    23:00 +30°C° 0 mm 5 mps 737 mmHg 38%

    Pasado mañana, 17 Noviembre, Sábado

    Tiempo Temperatura Precipitaciones Viento Presión Humedad
    00:00 +29°C° 0 mm 5 mps 736 mmHg 40%
    01:00 +29°C° 0 mm 4 mps 736 mmHg 43%
    02:00 +28°C° 0 mm 4 mps 735 mmHg 45%
    03:00 +28°C° 0 mm 3 mps 735 mmHg 50%
    04:00 +28°C° 0 mm 3 mps 735 mmHg 54%
    05:00 +27°C° 0 mm 3 mps 735 mmHg 58%
    06:00 +29°C° 0.1 mm 3 mps 735 mmHg 57%
    07:00 +30°C° 0.1 mm 4 mps 736 mmHg 57%
    08:00 +33°C° 0.1 mm 4 mps 736 mmHg 56%
    09:00 +35°C° 0 mm 4 mps 736 mmHg 52%
    10:00 +36°C° 0 mm 4 mps 736 mmHg 48%
    11:00 +38°C° 0 mm 3 mps 736 mmHg 43%
    12:00 +39°C° 0 mm 3 mps 736 mmHg 40%
    13:00 +40°C° 0 mm 2 mps 735 mmHg 36%
    14:00 +41°C° 0 mm 2 mps 735 mmHg 33%
    15:00 +42°C° 0 mm 3 mps 735 mmHg 34%
    16:00 +40°C° 0 mm 3 mps 735 mmHg 34%
    17:00 +40°C° 0 mm 4 mps 735 mmHg 35%
    18:00 +37°C° 0 mm 5 mps 736 mmHg 43%
    19:00 +35°C° 0 mm 6 mps 737 mmHg 50%
    20:00 +32°C° 0 mm 8 mps 738 mmHg 58%
    21:00 +31°C° 0.5 mm 8 mps 739 mmHg 60%
    22:00 +28°C° 0.5 mm 8 mps 740 mmHg 61%
    23:00 +26°C° 0.5 mm 8 mps 741 mmHg 63%

    18 Noviembre, Domingo

    Tiempo Temperatura Precipitaciones Viento Presión Humedad
    00:00 +24°C° 0.2 mm 8 mps 742 mmHg 57%
    01:00 +23°C° 0.2 mm 8 mps 742 mmHg 51%
    02:00 +22°C° 0.2 mm 8 mps 743 mmHg 45%
    03:00 +22°C° 0 mm 8 mps 744 mmHg 41%
    04:00 +21°C° 0 mm 7 mps 745 mmHg 37%
    05:00 +21°C° 0 mm 6 mps 745 mmHg 33%
    06:00 +21°C° 0 mm 5 mps 746 mmHg 34%
    07:00 +21°C° 0 mm 4 mps 747 mmHg 35%
    08:00 +21°C° 0 mm 3 mps 748 mmHg 36%
    09:00 +24°C° 0 mm 3 mps 748 mmHg 33%
    10:00 +25°C° 0 mm 3 mps 748 mmHg 31%
    11:00 +26°C° 0 mm 3 mps 748 mmHg 28%
    12:00 +28°C° 0 mm 3 mps 747 mmHg 26%
    13:00 +29°C° 0 mm 2 mps 746 mmHg 24%
    14:00 +31°C° 0 mm 2 mps 746 mmHg 23%
    15:00 +31°C° 0 mm 3 mps 745 mmHg 23%
    16:00 +30°C° 0 mm 3 mps 744 mmHg 24%
    17:00 +30°C° 0 mm 3 mps 744 mmHg 25%
    18:00 +29°C° 0 mm 3 mps 744 mmHg 29%
    19:00 +27°C° 0 mm 3 mps 744 mmHg 32%
    20:00 +25°C° 0 mm 3 mps 745 mmHg 36%
    21:00 +24°C° 0 mm 3 mps 745 mmHg 38%
    22:00 +22°C° 0 mm 3 mps 745 mmHg 40%
    23:00 +21°C° 0 mm 3 mps 745 mmHg 41%

    19 Noviembre, Lunes

    Tiempo Temperatura Precipitaciones Viento Presión Humedad
    00:00 +21°C° 0 mm 3 mps 744 mmHg 42%
    01:00 +20°C° 0 mm 3 mps 744 mmHg 44%
    02:00 +20°C° 0 mm 3 mps 743 mmHg 45%
    03:00 +19°C° 0 mm 3 mps 743 mmHg 46%
    04:00 +19°C° 0 mm 4 mps 743 mmHg 47%
    05:00 +18°C° 0 mm 4 mps 743 mmHg 48%
    06:00 +19°C° 0 mm 4 mps 743 mmHg 48%
    07:00 +21°C° 0 mm 5 mps 744 mmHg 48%
    08:00 +22°C° 0 mm 6 mps 744 mmHg 47%
    09:00 +24°C° 0 mm 6 mps 743 mmHg 44%
    10:00 +27°C° 0 mm 6 mps 743 mmHg 41%
    11:00 +29°C° 0 mm 6 mps 743 mmHg 38%
    12:00 +30°C° 0 mm 6 mps 742 mmHg 35%
    13:00 +33°C° 0 mm 6 mps 741 mmHg 33%
    14:00 +34°C° 0 mm 6 mps 740 mmHg 31%
    15:00 +34°C° 0 mm 6 mps 739 mmHg 30%
    16:00 +34°C° 0 mm 6 mps 739 mmHg 30%
    17:00 +34°C° 0 mm 6 mps 739 mmHg 30%
    18:00 +32°C° 0 mm 5 mps 739 mmHg 33%
    19:00 +29°C° 0 mm 5 mps 740 mmHg 37%
    20:00 +27°C° 0 mm 4 mps 740 mmHg 40%
    21:00 +26°C° 0 mm 4 mps 741 mmHg 43%
    22:00 +25°C° 0 mm 5 mps 741 mmHg 46%
    23:00 +23°C° 0 mm 5 mps 741 mmHg 48%

    20 Noviembre, Martes

    Tiempo Temperatura Precipitaciones Viento Presión Humedad
    00:00 +22°C° 0 mm 4 mps 741 mmHg 49%
    01:00 +22°C° 0 mm 3 mps 741 mmHg 51%
    02:00 +21°C° 0 mm 3 mps 741 mmHg 52%
    03:00 +20°C° 0 mm 3 mps 741 mmHg 54%
    04:00 +20°C° 0 mm 2 mps 742 mmHg 55%
    05:00 +19°C° 0 mm 2 mps 742 mmHg 56%
    06:00 +21°C° 0 mm 2 mps 743 mmHg 53%
    07:00 +24°C° 0 mm 3 mps 743 mmHg 49%
    08:00 +25°C° 0 mm 3 mps 744 mmHg 45%
    09:00 +27°C° 0 mm 3 mps 744 mmHg 40%
    10:00 +29°C° 0 mm 3 mps 744 mmHg 36%
    11:00 +33°C° 0 mm 3 mps 744 mmHg 31%
    12:00 +34°C° 0 mm 4 mps 743 mmHg 29%
    13:00 +35°C° 0 mm 4 mps 742 mmHg 27%
    14:00 +36°C° 0 mm 4 mps 742 mmHg 25%
    15:00 +36°C° 0 mm 4 mps 741 mmHg 26%
    16:00 +36°C° 0 mm 4 mps 741 mmHg 26%
    17:00 +36°C° 0 mm 4 mps 740 mmHg 26%
    18:00 +34°C° 0 mm 4 mps 741 mmHg 29%
    19:00 +32°C° 0 mm 4 mps 741 mmHg 33%
    20:00 +29°C° 0 mm 3 mps 742 mmHg 36%
    21:00 +28°C° 0 mm 3 mps 742 mmHg 38%
    22:00 +27°C° 0 mm 4 mps 742 mmHg 39%
    23:00 +26°C° 0 mm 4 mps 742 mmHg 41%
    Mostrar más